CZ-6A DEB, 61125

Orbit data source: Space-Track

CZ-6A DEB, 61125 is space debris in LEO originally from a launch on Tue, 06 Aug 2024 UTC launched from the Taiyaun Space Center, China (TSC). Debris objects in space refer to the collection of defunct objects orbiting the Earth. Examples of debris include non-operational satellites, rocket bodies, and fragments generated from explosions, collisions, or faulty payload assembly.

Loading next visibility...
Identifier
61125, 2024-140PT
Orbit
LEO
Country
Flag of CNCN / PRC
Related business
Manufacturer
SAST
Mission
Spacecraft
Bus & Motor
Unknown
Mass
Unknown
Launch date (UTC)
2024-08-06 (2 years ago)
Launch vehicle
Unknown
Launch site
Taiyaun Space Center, China (TSC)
Object type
Payload
Rocket body
Debris
Shape & HBR
Unknown shape, 0.1 m
Radar Cross Section
Small (<0.1 m²)

Expand to show TLE details & history
Last TLE update: 16 hours ago

TLE from 16 hours ago
0 CZ-6A DEB
1 61125U 24140PT  26171.20722573  .00000364  00000-0  17908-3 0  9992
2 61125  88.8538 263.3206 0069461 199.9460 159.9010 14.14316230 94343
Epoch: 2026-06-20T04:58Z
TLE epoch observation values (Epoch: 2026-06-20T04:58:24.303Z)
Latitude
0.00001°
Longitude
-79.70583°
Altitude
894.849 km
Speed
7.38 km/s
True Right ascension
17h 33m 16s
True Declination
0° 00' 00"
Sunlit
Object was in full shadow at epoch
Visualization orbit readout
Latitude
Unknown
Longitude
Unknown
Altitude
Unknown
Speed
Unknown
Apparent Right ascension
Unknown
Apparent Declination
Unknown
Sunlit
N/A
Visualization observer readout
Local Sidereal Time
07:24:27
Azimuth
Unknown
Elevation
Unknown
Doppler factor
Unknown
Orbital elements
Apogee altitude
891.748 km
Perigee altitude
791.45 km
Semi-major axis
7,219.736 km
Eccentricity
0.00695
Inclination
88.8538°
RAAN
263.3206°
Arg. of periapsis
199.946°
True anomaly
160.17231°
Mean anomaly
159.901°
Eccentric anomaly
160.03688°
Mean motion
3.53803 °/min
Orbital period
101.75 mins
BSTAR
0.00017908
Loading maneuver chart data...
Computing Atmospheric mass density...
Loading historical data...
Loading historical data...
Loading historical data...
Loading historical data...
Loading historical data...
Loading historical data...
Loading historical data...

Documentation

Showing up to 5 results
|